Flag for Australia Weather past 2 weeks in The Settlement, Christmas Island, Australia

Now
79 °F

Broken clouds.


Feels Like: 81 °F
Forecast: 74 / 79 °F
Wind: 12 mph from East

Location: Christmas Island Aerodrome

Current Time: Sep 30, 2014 at 1:00:45 PM

Latest Report: Sep 30, 2014 at 12:03 PM


Visibility: N/A

Pressure: 29.95 "Hg

Humidity: 74%

Dew point: 70 °F

Location of The SettlementLocation

Historic Weather in The Settlement — Graph

°F

The Settlement temperature yesterday

Maximum temperature yesterday: 79 °F (at 9:00 AM)
Minimum temperature yesterday: 72 °F (at 1:00 AM)
Average temperature yesterday: 75 °F

Past Weeks' High & Low Weather Summary

 TemperatureHumidityPressure
High81 °F (Sep 17, 11:00 AM)94% (Sep 19, 2:00 AM)30.07 "Hg (Sep 19, 2:00 AM)
Low72 °F (Sep 26, 10:00 PM)58% (Sep 27, 11:00 AM)29.86 "Hg (Sep 16, 2:00 PM)
Average75 °F77%29.98 "Hg
* Reported Sep 15 12:00 Noon — Sep 30 12:03 PM, The Settlement, Weather by CustomWeather, © 2014

Note: Actual official high and low records may vary slightly from our data, if they occured in-between our weather recording intervals... More about our weather records

Advertising

The Settlement weather history for previous 24 hours

 ConditionsComfort  
Time TempWeatherWind HumidityBarometerVisibility
12:03 PM
Sep 30
79 °FBroken clouds.12 mph74%29.95 "HgN/A
11:00 AM79 °FBroken clouds.12 mph74%29.98 "HgN/A
10:00 AM79 °FPartly sunny.12 mph79%30.01 "HgN/A
9:00 AM77 °FMostly cloudy.10 mph83%30.01 "HgN/A
8:00 AM77 °FMostly cloudy.10 mph83%30.01 "HgN/A
7:00 AM75 °FMostly cloudy.10 mph89%29.98 "HgN/A
6:00 AM73 °FPartly sunny.9 mph89%29.95 "HgN/A
5:00 AM73 °FPartly cloudy.7 mph89%29.95 "HgN/A
4:00 AM73 °FPartly cloudy.10 mph89%29.92 "HgN/A
3:00 AM73 °FPassing clouds.9 mph89%29.95 "HgN/A
2:00 AM73 °FPassing clouds.8 mph89%29.92 "HgN/A
1:00 AM73 °FPassing clouds.9 mph94%29.95 "HgN/A
12:00 AM73 °FPassing clouds.12 mph89%29.95 "HgN/A
11:00 PM
Sep 29
73 °FPartly cloudy.9 mph89%29.95 "HgN/A
10:00 PM73 °FPassing clouds.10 mph89%29.98 "HgN/A
9:00 PM73 °FPassing clouds.9 mph89%29.95 "HgN/A
8:00 PM75 °FPartly cloudy.8 mph83%29.95 "HgN/A
7:00 PM73 °FPassing clouds.8 mph89%29.95 "HgN/A
6:00 PM75 °FPassing clouds.8 mph83%29.92 "HgN/A
5:03 PM75 °FScattered clouds.9 mph78%29.92 "HgN/A
4:00 PM77 °FMostly cloudy.10 mph74%29.92 "HgN/A
3:00 PM79 °FPartly sunny.10 mph70%29.92 "HgN/A
2:30 PM79 °FPartly sunny.10 mph70%29.92 "HgN/A
2:00 PM79 °FPartly sunny.10 mph70%29.92 "HgN/A
1:00 PM79 °FScattered clouds.12 mph65%29.95 "HgN/A
Weather by CustomWeather, © 2014

See weather overviewHow to use our weather pages